User: anonymous   Login
Location: Caltech
(34.1382°N, 118.1253°W)
Time: 09:13:52
(UTC-08:00)
Language:

Cosmos 2360 Rocket - Orbit

View from above orbital plane
View from above orbital plane
View from above satellite
View from above satellite

Ground track
Ground track

The orbit data is extracted from the following two-line orbital elements,

1 25407U 98045B   14353.69662729 -.00000247  00000-0 -10141-3 0  6416
2 25407 071.0114 154.6923 0006680 172.9827 267.4877 14.15689820847329
Epoch (UTC): 19 December 2014 16:43:08
Eccentricity: 0.0006680
inclination: 71.0114°
perigee height: 835 km
apogee height: 845 km
right ascension of ascending node: 154.6923°
argument of perigee: 172.9827°
revolutions per day: 14.15689820
mean anomaly at epoch: 267.4877°
orbit number at epoch: 84732

The dashed part of the orbit path shows where the satellite is in the earth's shadow,  

DLR